Home > Weather > Taunton > Past weeks

Flag for United Kingdom Weather for the Past 2 Weeks in Taunton, England, United Kingdom

Now
55 °F

Refreshingly cool.


Feels Like: 53 °F
Forecast: 35 / 60 °F
Wind: 8 mph from Northwest

Location: Dunkeswell Aerodrome

Current Time: May 3, 2016 at 5:22:39 PM

Latest Report: May 3, 2016 at 4:00 PM


Visibility: 22 mi

Pressure: 30.34 "Hg

Humidity: 52%

Dew Point: 38 °F

Location of TauntonLocation

Historic Weather in Taunton — Graph

°F

Taunton Temperature Yesterday

Maximum temperature yesterday: 53 °F (at 12:00 PM)
Minimum temperature yesterday: 43 °F (at 11:00 PM)
Average temperature yesterday: 49 °F

High & Low Weather Summary for the Past Weeks

 TemperatureHumidityPressure
High58 °F (Apr 20, 4:00 PM)100% (May 2, 12:00 AM)30.38 "Hg (May 2, 12:00 AM)
Low32 °F (Apr 28, 6:00 AM)38% (Apr 20, 4:00 PM)29.83 "Hg (Apr 25, 6:00 PM)
Average46 °F73%30.11 "Hg
* Reported Apr 18 4:00 PM — May 3 4:00 PM, Taunton, Weather by CustomWeather, © 2016

Note: Actual official high and low records may vary slightly from our data, if they occured in-between our weather recording intervals... More about our weather records

Advertising

Taunton Weather History for the Previous 24 Hours

Scroll right to see more
 ConditionsComfort  
Time TempWeatherWind HumidityBarometerVisibility
4:00 PM
Tue, May 3
55 °FRefreshingly cool.8 mph52%30.34 "Hg22 mi
3:00 PM57 °FRefreshingly cool.8 mph54%30.34 "Hg15 mi
2:00 PM53 °FCool.9 mph53%30.34 "Hg28 mi
1:00 PM54 °FCool.10 mph48%30.34 "Hg28 mi
11:00 AM50 °FCool.8 mph67%30.35 "Hg9 mi
10:00 AM48 °FCool.8 mph76%30.35 "Hg13 mi
9:00 AM46 °FCool.6 mph81%30.33 "Hg14 mi
8:00 AM43 °FQuite cool.7 mph86%30.32 "Hg11 mi
7:00 AM41 °FQuite cool.6 mph93%30.31 "Hg9 mi
6:00 AM39 °FChilly.5 mph97%30.30 "Hg7 mi
5:00 AM40 °FChilly.6 mph95%30.29 "Hg7 mi
4:00 AM40 °FQuite cool.8 mph94%30.28 "Hg8 mi
1:00 AM42 °FFog.6 mph96%30.26 "Hg5 mi
12:00 AM42 °FFog.7 mph94%30.25 "Hg6 mi
11:00 PM
Mon, May 2
43 °FQuite cool.6 mph92%30.23 "Hg6 mi
10:00 PM44 °FQuite cool.9 mph88%30.21 "Hg7 mi
9:00 PM45 °FQuite cool.9 mph82%30.18 "Hg9 mi
8:00 PM47 °FCool.12 mph74%30.15 "Hg10 mi
7:00 PM49 °FCool.12 mph65%30.14 "Hg10 mi
6:00 PM51 °FCool.12 mph69%30.13 "Hg13 mi
5:00 PM52 °FCool.14 mph64%30.11 "Hg12 mi
Weather by CustomWeather, © 2016

See weather overviewHow to use our weather pages